Weather History for Biloxi, MS

Change the Weather History Date:

Monday, September 19, 2011

  Actual Average Record
Temperature  
Mean Temperature 78 °F -  
Max Temperature 82 °F 86 °F 95 °F (1972)
Min Temperature 73 °F 69 °F 52 °F (1981)
Cooling Degree Days 12    
Growing Degree Days 28 (Base 50)    
Moisture  
Dew Point 74 °F    
Average Humidity 89    
Maximum Humidity 100    
Minimum Humidity 74    
Precipitation  
Precipitation 0.84 in - - ()
Sea Level Pressure  
Sea Level Pressure 29.99 in    
Wind  
Wind Speed 10 mph (ESE)    
Max Wind Speed 16 mph    
Max Gust Speed 22 mph    
Visibility 8 miles    
Events Fog , Rain , Thunderstorm , Tornado    
Averages and records for this station are not official NWS values.
T = Trace of Precipitation, MM = Missing Value Source: NWS Daily Summary

Daily Weather History Graph

Daily Weather History Graph

Search for Another Location

Airport:

Trip Planner

Search our weather history database for the weather conditions in past years. The results will help you decide how hot, cold, wet, or windy it might be!

Date:

Astronomy

Sep. 19, 2011 Rise Set
Actual Time 6:42 AM CDT 6:56 PM CDT
Civil Twilight 6:18 AM CDT 7:20 PM CDT
Nautical Twilight 5:50 AM CDT 7:48 PM CDT
Astronomical Twilight 5:21 AM CDT 8:16 PM CDT
Moon 11:31 PM CDT (9/19) 1:03 PM CDT (9/19)
Length of Visible Light 13h 02m
Length of Day
12h 14m
Waning Gibbous, 58% of the Moon is Illuminated
Sep 19
Waning Gibbous
Sep 20
Last Quarter
Sep 27
New
Oct 3
First Quarter
Oct 11
Full

Hourly Weather History & Observations

Time (CDT) Temp. Heat Index Dew Point Humidity Pressure Visibility Wind Dir Wind Speed Gust Speed Precip Events Conditions
12:55 AM 80.1 °F 84.5 °F 73.8 °F 81% 30.03 in 10.0 mi SSE 10.4 mph - N/A   Mostly Cloudy
1:55 AM 80.2 °F 84.3 °F 72.3 °F 77% 30.05 in 10.0 mi SSE 6.9 mph - N/A   Scattered Clouds
2:55 AM 80.2 °F 84.3 °F 72.3 °F 77% 30.06 in 10.0 mi ESE 8.1 mph - N/A   Mostly Cloudy
3:55 AM 79.9 °F - 72.3 °F 78% 30.04 in 10.0 mi SE 6.9 mph - N/A   Scattered Clouds
4:55 AM 79.7 °F - 72.7 °F 79% 30.03 in 10.0 mi SSE 8.1 mph - N/A   Scattered Clouds
5:53 AM 75.2 °F - 73.4 °F 94% 30.04 in 10.0 mi ENE 6.9 mph - N/A   Mostly Cloudy
5:55 AM 75.6 °F - 73.8 °F 94% 30.04 in 10.0 mi NE 6.9 mph - N/A   Mostly Cloudy
6:55 AM 75.6 °F - 74.1 °F 95% 30.04 in 10.0 mi East 10.4 mph - N/A   Mostly Cloudy
7:09 AM 75.2 °F - 73.4 °F 94% 30.04 in 10.0 mi East 5.8 mph - N/A   Mostly Cloudy
8:55 AM 78.8 °F - 69.8 °F 74% 30.03 in 10.0 mi East 5.8 mph - N/A   Mostly Cloudy
9:55 AM 81.5 °F 87.4 °F 74.5 °F 79% 30.05 in 10.0 mi SSE 12.7 mph - N/A   Mostly Cloudy
10:52 AM 82.4 °F 88.2 °F 73.4 °F 74% 30.04 in 10.0 mi SSE 15.0 mph 19.6 mph N/A Rain Light Rain
10:55 AM 82.6 °F 89.1 °F 74.5 °F 76% 30.04 in 10.0 mi SE 16.1 mph 19.6 mph 0.00 in Rain Light Rain
11:01 AM 82.4 °F 88.2 °F 73.4 °F 74% 30.05 in 10.0 mi SE 15.0 mph - N/A   Mostly Cloudy
11:13 AM 82.4 °F 88.2 °F 73.4 °F 74% 30.05 in 3.0 mi SSE 13.8 mph - N/A Rain Light Rain
11:19 AM 80.6 °F 86.2 °F 75.2 °F 84% 30.05 in 2.5 mi SE 11.5 mph - N/A Rain Light Rain
11:25 AM 80.6 °F 86.2 °F 75.2 °F 84% 30.04 in 3.0 mi SE 13.8 mph 20.7 mph N/A Rain Light Rain
11:49 AM 80.6 °F 86.2 °F 75.2 °F 84% 30.04 in 10.0 mi SE 13.8 mph 21.9 mph N/A Thunderstorm Overcast
11:55 AM 80.2 °F 85.4 °F 74.8 °F 84% 30.04 in 10.0 mi SE 11.5 mph - 0.02 in Thunderstorm Overcast
11:58 AM 80.6 °F 86.2 °F 75.2 °F 84% 30.04 in 6.0 mi SE 10.4 mph - N/A Rain , Thunderstorm Light Rain
12:28 PM 78.8 °F - 75.2 °F 89% 30.03 in 9.0 mi SE 9.2 mph - N/A Rain , Thunderstorm Light Thunderstorms and Rain
12:42 PM 78.8 °F - 75.2 °F 89% 30.01 in 10.0 mi SE 15.0 mph - N/A Rain , Thunderstorm , Tornado Funnel Cloud
12:48 PM 78.8 °F - 75.2 °F 89% 30.02 in 10.0 mi SE 15.0 mph - N/A Rain , Thunderstorm Light Thunderstorms and Rain
12:55 PM 79.3 °F - 74.8 °F 86% 30.02 in 3.0 mi SE 13.8 mph - 0.00 in Rain , Thunderstorm Light Thunderstorms and Rain
1:00 PM 78.8 °F - 75.2 °F 89% 30.02 in 2.0 mi SE 9.2 mph - N/A Rain , Thunderstorm Thunderstorms and Rain
1:08 PM 78.8 °F - 75.2 °F 89% 30.01 in 3.0 mi Variable 4.6 mph - N/A Rain , Thunderstorm Light Thunderstorms and Rain
1:17 PM 78.8 °F - 75.2 °F 89% 30.01 in 10.0 mi SSE 13.8 mph 18.4 mph N/A Thunderstorm Thunderstorm
1:29 PM 78.8 °F - 75.2 °F 89% 30.01 in 8.0 mi SW 9.2 mph - N/A Rain , Thunderstorm Light Thunderstorms and Rain
1:39 PM 77.0 °F - 75.2 °F 94% 30.00 in 8.0 mi South 8.1 mph - N/A Thunderstorm Thunderstorm
1:55 PM 80.6 °F 86.4 °F 75.6 °F 85% 30.00 in 10.0 mi South 10.4 mph - 0.07 in Thunderstorm Thunderstorm
1:59 PM 80.6 °F 86.2 °F 75.2 °F 84% 30.00 in 10.0 mi South 11.5 mph - N/A Thunderstorm Overcast
2:11 PM 80.6 °F 86.2 °F 75.2 °F 84% 29.99 in 10.0 mi SSE 8.1 mph - N/A Thunderstorm Scattered Clouds
2:51 PM 80.6 °F 86.2 °F 75.2 °F 84% 29.98 in 4.0 mi SSE 8.1 mph - N/A Rain , Thunderstorm Light Rain
2:55 PM 79.9 °F - 75.2 °F 86% 29.98 in 2.0 mi South 8.1 mph - 0.00 in Rain , Thunderstorm Light Rain
3:17 PM 77.0 °F - 73.4 °F 89% 29.95 in 9.0 mi SSE 12.7 mph 19.6 mph N/A Rain , Thunderstorm Light Rain
3:33 PM 78.8 °F - 73.4 °F 83% 29.95 in 5.0 mi ESE 6.9 mph - N/A   Mostly Cloudy
3:55 PM 80.4 °F 84.8 °F 73.0 °F 78% 29.96 in 10.0 mi SE 5.8 mph - 0.11 in   Mostly Cloudy
4:19 PM 80.6 °F 85.4 °F 73.4 °F 79% 29.95 in 10.0 mi South 15.0 mph 19.6 mph N/A Rain Light Rain
4:34 PM 77.0 °F - 73.4 °F 89% 29.94 in 10.0 mi Variable 3.5 mph - N/A   Mostly Cloudy
4:55 PM 80.2 °F 85.8 °F 76.1 °F 87% 29.94 in 10.0 mi SSE 9.2 mph - 0.01 in   Mostly Cloudy
5:03 PM 80.6 °F 87.1 °F 77.0 °F 89% 29.94 in 10.0 mi SSE 9.2 mph - N/A   Mostly Cloudy
5:19 PM 80.6 °F 86.2 °F 75.2 °F 84% 29.94 in 10.0 mi SSE 9.2 mph - N/A   Mostly Cloudy
5:55 PM 80.4 °F 86.0 °F 75.6 °F 85% 29.94 in 10.0 mi SSE 9.2 mph - N/A   Mostly Cloudy
6:17 PM 80.6 °F 86.2 °F 75.2 °F 84% 29.94 in 10.0 mi SSE 10.4 mph - N/A   Mostly Cloudy
6:55 PM 80.2 °F 85.7 °F 75.7 °F 86% 29.94 in 10.0 mi SSE 11.5 mph - N/A   Mostly Cloudy
7:08 PM 80.6 °F 86.2 °F 75.2 °F 84% 29.94 in 5.0 mi SSE 12.7 mph - N/A Rain Light Rain
7:32 PM 78.8 °F - 77.0 °F 94% 29.94 in 10.0 mi SSE 10.4 mph - N/A Thunderstorm Mostly Cloudy
7:55 PM 79.5 °F - 76.6 °F 91% 29.94 in 10.0 mi South 9.2 mph - 0.08 in   Overcast
8:16 PM 78.8 °F - 75.2 °F 89% 29.95 in 10.0 mi South 12.7 mph - N/A   Mostly Cloudy
8:55 PM 79.5 °F - 76.5 °F 90% 29.95 in 10.0 mi South 9.2 mph - N/A   Mostly Cloudy
9:17 PM 78.8 °F - 77.0 °F 94% 29.97 in 10.0 mi SSW 8.1 mph - N/A Rain , Thunderstorm Light Rain
9:29 PM 77.0 °F - 71.6 °F 83% 29.97 in 10.0 mi SSE 4.6 mph 20.7 mph N/A Rain , Thunderstorm Light Thunderstorms and Rain
9:34 PM 77.0 °F - 71.6 °F 83% 29.98 in 2.0 mi West 10.4 mph - N/A Rain , Thunderstorm Light Thunderstorms and Rain
9:35 PM 77.0 °F - 73.4 °F 89% 29.98 in 2.5 mi WNW 10.4 mph 18.4 mph N/A Rain , Thunderstorm Light Thunderstorms and Rain
9:36 PM 77.0 °F - 73.4 °F 89% 29.98 in 1.8 mi NW 11.5 mph 18.4 mph N/A Rain , Thunderstorm Light Thunderstorms and Rain
9:37 PM 75.2 °F - 73.4 °F 94% 29.99 in 1.2 mi NNW 10.4 mph 18.4 mph N/A Rain , Thunderstorm Heavy Thunderstorms and Rain
9:38 PM 75.2 °F - 73.4 °F 94% 29.99 in 1.0 mi NNW 11.5 mph 18.4 mph N/A Rain , Thunderstorm Heavy Thunderstorms and Rain
9:39 PM 75.2 °F - 73.4 °F 94% 30.00 in 1.0 mi NW 10.4 mph 18.4 mph N/A Rain , Thunderstorm Heavy Thunderstorms and Rain
9:40 PM 75.2 °F - 73.4 °F 94% 30.00 in 0.8 mi WNW 8.1 mph 18.4 mph N/A Rain , Thunderstorm Heavy Thunderstorms and Rain
9:43 PM 75.2 °F - 73.4 °F 94% 29.99 in 0.5 mi WSW 5.8 mph 18.4 mph N/A Fog , Rain , Thunderstorm Heavy Thunderstorms and Rain
9:44 PM 75.2 °F - 73.4 °F 94% 29.98 in 0.5 mi NNE 6.9 mph 18.4 mph N/A Fog , Rain , Thunderstorm Heavy Thunderstorms and Rain
9:45 PM 75.2 °F - 73.4 °F 94% 29.98 in 0.5 mi NNE 12.7 mph 18.4 mph N/A Fog , Rain , Thunderstorm Heavy Thunderstorms and Rain
9:47 PM 73.4 °F - 73.4 °F 100% 29.98 in 0.8 mi NE 9.2 mph 17.3 mph N/A Rain , Thunderstorm Heavy Thunderstorms and Rain
9:50 PM 73.4 °F - 73.4 °F 100% 29.98 in 1.0 mi NNE 10.4 mph 17.3 mph N/A Rain , Thunderstorm Thunderstorms and Rain
9:52 PM 73.4 °F - 73.4 °F 100% 29.98 in 1.2 mi NNE 10.4 mph 17.3 mph N/A Rain , Thunderstorm Light Thunderstorms and Rain
9:53 PM 73.4 °F - 73.4 °F 100% 29.98 in 2.0 mi NE 8.1 mph 17.3 mph N/A Rain , Thunderstorm Light Thunderstorms and Rain
9:54 PM 73.4 °F - 73.4 °F 100% 29.98 in 3.0 mi ENE 6.9 mph 17.3 mph N/A Rain , Thunderstorm Light Thunderstorms and Rain
9:55 PM 73.6 °F - 73.0 °F 98% 29.98 in 5.0 mi NE 9.2 mph - 0.54 in Rain , Thunderstorm Light Thunderstorms and Rain
10:02 PM 73.4 °F - 71.6 °F 94% 29.98 in 10.0 mi NE 10.4 mph - N/A Rain , Thunderstorm Light Thunderstorms and Rain
10:03 PM 73.4 °F - 71.6 °F 94% 29.98 in 10.0 mi NE 9.2 mph - N/A Thunderstorm Thunderstorm
10:04 PM 73.4 °F - 71.6 °F 94% 29.98 in 10.0 mi NE 8.1 mph - N/A Thunderstorm Overcast
10:06 PM 73.4 °F - 71.6 °F 94% 29.98 in 10.0 mi NE 10.4 mph - N/A Thunderstorm Overcast
10:31 PM 73.4 °F - 73.4 °F 100% 29.98 in 10.0 mi ENE 5.8 mph - N/A Rain Light Rain
10:46 PM 73.4 °F - 73.4 °F 100% 29.98 in 10.0 mi East 10.4 mph - N/A Thunderstorm Mostly Cloudy
10:51 PM 73.4 °F - 73.4 °F 100% 29.98 in 10.0 mi East 9.2 mph - N/A Rain , Thunderstorm Light Rain
10:55 PM 73.0 °F - 72.7 °F 99% 29.98 in 10.0 mi ENE 8.1 mph - 0.00 in Rain , Thunderstorm Light Rain
11:19 PM 73.4 °F - 73.4 °F 100% 29.98 in 10.0 mi East 4.6 mph - N/A Rain Light Rain
11:23 PM 73.4 °F - 73.4 °F 100% 29.98 in 10.0 mi East 3.5 mph - N/A   Scattered Clouds
11:39 PM 73.4 °F - 73.4 °F 100% 29.98 in 10.0 mi ENE 4.6 mph - N/A   Mostly Cloudy
11:41 PM 73.4 °F - 73.4 °F 100% 29.98 in 10.0 mi ENE 4.6 mph - N/A Thunderstorm Mostly Cloudy
11:45 PM 73.4 °F - 73.4 °F 100% 29.97 in 10.0 mi NE 4.6 mph - N/A Thunderstorm Mostly Cloudy
11:46 PM 73.4 °F - 73.4 °F 100% 29.97 in 10.0 mi NE 5.8 mph - N/A Rain , Thunderstorm Light Rain
11:55 PM 73.2 °F - 72.9 °F 99% 29.97 in 10.0 mi NE 6.9 mph - 0.01 in   Mostly Cloudy
11:59 PM 73.4 °F - 73.4 °F 100% 29.97 in 10.0 mi NE 5.8 mph - N/A   Mostly Cloudy